Content
SEND FEEDBACK

Daily
Averages
Monthly
Summary
Mexico

PLAYA DEL CARMEN, QUINTANA ROO


Home > North America > Mexico > Quintana Roo
Elevation: 30 feet     Latitude: 20 38N     Longitude: 087 04W

WEATHER
 
SELECT A DAY
Number of Records: 196,556;   Date Range: 2/21/06 - 8/30/14
 
SHARE

PRINT THIS DATA

[ ← Previous Day ]
WEATHER ALMANAC - JANUARY 9, 2014
[ Next Day → ]
[ °C ]   °F
Weather ElementAverageHighLow
Temperature65.5 °F73.4 °F (12:15 pm)57.2 °F (2:55 am)
Dewpoint26.9 °F69.8 °F (11:35 am) (7:00 pm)
Humidity79.7 %100 % (5:15 am)72 % (12:35 am)
Barometer30.26 in30.32 in (9:15 am)30.21 in (2:15 pm)
Wind Speed8.2 mph13.8 mph (11:55 am)
Wind Gust23 mph (1:55 pm)
Weather ElementAverage
Visibility8.9 mi
Wind DirectionENE (64.1 °)

Weather ElementTotal
Precipitation---
Cooling Degree Days0.3 (Base 65)
Growing Degree Days15.3 (Base 50)
Averaged from 68 records on January 9, 2014
WEATHER CONDITIONS BREAKOUT
WIND DIRECTION BREAKOUT
WEATHER BY HOUR - JANUARY 9, 2014
[ °C ]   °F
Local TimeTemperatureDewpointHumidityBarometerVisibilityWind DirectionWind SpeedGust SpeedPrecipitationEventsConditions
12:35 AM59.0 °F50.0 °F72 %30.30 in10.0 miNE (40°)4.6 mphOvercast
12:55 AM59.0 °F50.0 °F72 %30.29 in10.0 miNNE (30°)6.9 mphOvercast
1:15 AM59.0 °F50.0 °F72 %30.28 in10.0 miNNE (30°)8.1 mphOvercast
1:35 AM59.0 °F50.0 °F72 %30.28 in10.0 miNNE (30°)5.8 mphOvercast
1:55 AM59.0 °F50.0 °F72 %30.29 in10.0 miNNE (30°)4.6 mphOvercast
2:15 AM59.0 °F51.8 °F77 %30.28 in10.0 miNNE (30°)6.9 mphOvercast
2:35 AM59.0 °F51.8 °F77 %30.28 in10.0 miNNE (30°)6.9 mphOvercast
2:55 AM57.2 °F51.8 °F82 %30.27 in10.0 miNE (40°)9.2 mphOvercast
3:15 AM57.2 °F51.8 °F82 %30.28 in10.0 miNNE (30°)6.9 mphOvercast
3:35 AM57.2 °F51.8 °F82 %30.28 in10.0 miNNE (20°)4.6 mphOvercast
3:55 AM57.2 °F51.8 °F82 %30.28 in10.0 miNE (40°)4.6 mphOvercast
4:15 AM57.2 °F51.8 °F82 %30.27 in7.0 miNNE (30°)6.9 mphRainLight Rain
4:35 AM57.2 °F53.6 °F88 %30.27 in10.0 miENE (60°)4.6 mphOvercast
4:55 AM57.2 °F55.4 °F94 %30.27 in10.0 miNNE (30°)4.6 mphRainLight Rain
5:15 AM57.2 °F57.2 °F100 %30.26 in7.0 miENE (60°)5.8 mphDrizzle
5:35 AM57.2 °F0.0 °F30.26 in7.0 miNE (50°)5.8 mphDrizzle
5:55 AM57.2 °F0.0 °F30.26 in7.0 miNE (40°)6.9 mphLight Drizzle
6:15 AM57.2 °F0.0 °F30.26 in10.0 miNE (50°)6.9 mphOvercast
6:35 AM57.2 °F0.0 °F30.26 in10.0 miNE (40°)5.8 mphOvercast
6:55 AM57.2 °F0.0 °F30.27 in10.0 miNE (40°)5.8 mphOvercast
7:15 AM57.2 °F0.0 °F30.28 in10.0 miNE (40°)5.8 mphOvercast
7:35 AM57.2 °F0.0 °F30.29 in10.0 miNE (40°)4.6 mphOvercast
7:55 AM57.2 °F0.0 °F30.30 in7.0 miNE (40°)3.5 mphLight Drizzle
8:15 AM59.0 °F0.0 °F30.31 in5.0 miNNE (30°)4.6 mphDrizzle
8:35 AM59.0 °F0.0 °F30.31 in7.0 miNNE (30°)5.8 mphOvercast
8:55 AM59.0 °F0.0 °F30.31 in7.0 miENE (60°)5.8 mphOvercast
9:15 AM60.8 °F0.0 °F30.32 in5.0 miNE (50°)3.5 mphRainRain
9:35 AM62.6 °F0.0 °F30.32 in4.0 miENE (70°)8.1 mphRainHeavy Rain
9:55 AM64.4 °F0.0 °F30.32 in10.0 miENE (60°)8.1 mphOvercast
10:15 AM66.2 °F0.0 °F30.32 in10.0 miENE (70°)9.2 mph16.1 mphOvercast
10:35 AM68.0 °F0.0 °F30.31 in10.0 miEast (90°)11.5 mph17.3 mphOvercast
10:55 AM69.8 °F0.0 °F30.31 in10.0 miENE (70°)11.5 mph17.3 mphOvercast
11:15 AM69.8 °F0.0 °F30.30 in10.0 miENE (70°)11.5 mph20.7 mphOvercast
11:35 AM71.6 °F69.8 °F94 %30.29 in10.0 miEast (80°)10.4 mph18.4 mphOvercast
11:55 AM71.6 °F64.4 °F78 %30.28 in10.0 miEast (80°)13.8 mph19.6 mphOvercast
12:15 PM73.4 °F64.4 °F73 %30.27 in10.0 miEast (90°)9.2 mphOvercast
12:35 PM73.4 °F64.4 °F73 %30.26 in10.0 miEast (100°)10.4 mph21.9 mphOvercast
12:55 PM71.6 °F64.4 °F78 %30.25 in10.0 miEast (90°)11.5 mph20.7 mphOvercast
1:15 PM71.6 °F64.4 °F78 %30.24 in10.0 miENE (70°)12.7 mph17.3 mphOvercast
1:35 PM71.6 °F64.4 °F78 %30.23 in10.0 miENE (70°)10.4 mph18.4 mphOvercast
1:55 PM73.4 °F64.4 °F73 %30.22 in10.0 miEast (80°)12.7 mph23.0 mphOvercast
2:15 PM73.4 °F64.4 °F73 %30.21 in10.0 miEast (90°)12.7 mph18.4 mphOvercast
2:35 PM73.4 °F64.4 °F73 %30.21 in10.0 miEast (80°)12.7 mph20.7 mphOvercast
2:55 PM73.4 °F64.4 °F73 %30.21 in10.0 miEast (90°)12.7 mph20.7 mphOvercast
3:35 PM73.4 °F64.4 °F73 %30.21 in10.0 miENE (70°)13.8 mph18.4 mphOvercast
3:55 PM73.4 °F66.2 °F78 %30.21 in10.0 miENE (70°)10.4 mphOvercast
4:15 PM71.6 °F66.2 °F83 %30.21 in5.0 miEast (80°)12.7 mphHaze
4:35 PM71.6 °F68.0 °F88 %30.21 in3.0 miEast (80°)11.5 mphOvercast
4:55 PM69.8 °F69.8 °F100 %30.22 in4.0 miENE (70°)8.1 mphOvercast
5:15 PM69.8 °F0.0 °F30.22 in4.0 miEast (80°)8.1 mphHaze
6:15 PM69.8 °F0.0 °F30.23 in10.0 miEast (80°)8.1 mphOvercast
6:35 PM69.8 °F0.0 °F30.23 in10.0 miEast (80°)8.1 mph18.4 mphOvercast
6:55 PM69.8 °F0.0 °F30.23 in10.0 miEast (80°)9.2 mphOvercast
7:15 PM69.8 °F0.0 °F30.24 in10.0 miEast (80°)8.1 mphOvercast
7:35 PM69.8 °F0.0 °F30.24 in10.0 miEast (80°)9.2 mphOvercast
7:55 PM69.8 °F0.0 °F30.25 in10.0 miEast (80°)10.4 mphOvercast
8:15 PM69.8 °F0.0 °F30.25 in7.0 miEast (80°)10.4 mph16.1 mphOvercast
8:35 PM69.8 °F0.0 °F30.25 in5.0 miEast (80°)10.4 mphHaze
8:55 PM69.8 °F0.0 °F30.25 in5.0 miEast (80°)5.8 mphHaze
9:15 PM69.8 °F0.0 °F30.25 in10.0 miEast (90°)8.1 mph16.1 mphOvercast
9:35 PM69.8 °F0.0 °F30.25 in10.0 miEast (90°)8.1 mphOvercast
9:55 PM69.8 °F0.0 °F30.26 in7.0 miEast (90°)6.9 mphOvercast
10:15 PM69.8 °F0.0 °F30.26 in10.0 miEast (80°)6.9 mphOvercast
10:35 PM69.8 °F0.0 °F30.26 in10.0 miEast (90°)5.8 mphOvercast
10:55 PM69.8 °F0.0 °F30.25 in10.0 miEast (90°)8.1 mphOvercast
11:15 PM69.8 °F0.0 °F30.25 in10.0 miEast (100°)9.2 mphOvercast
11:35 PM69.8 °F0.0 °F30.24 in10.0 miEast (90°)8.1 mphOvercast
11:55 PM69.8 °F0.0 °F30.23 in10.0 miEast (80°)6.9 mphOvercast
Hourly data recorded from KPCM, located miles away from Playa del Carmen, Quintana Roo







STORIES FROM OUR PARTNERS